Terug naar catalogus

CZ-6A DEB

ActiefPO
NORAD 60974·DEBRIS·🇨🇳 China

Gelanceerd Aug 6, 2024 vanaf Taiyuan Satellite Launch Center

Loading…

Volgende Passages (komende 24 uur)

TLE

VersSource: Space-Track

Epoch: Sep 14, 2026, 08:49 UTC

1 60974U 24140LZ  26257.36746166  .00001072  00000-0  30472-3 0  9997
2 60974  88.7366 236.7979 0072359  41.5411 319.1258 14.43109212109153

Volg CZ-6A DEB in realtime met AllMySat

Download on the App Store